Voltar ao catálogo

STARLINK-3625

AtivoComunicaçõesVLEO
NORAD 51777·PAYLOAD·🇺🇸 United States

Lançado Feb 25, 2022 de Vandenberg Space Force Base

Loading…

Próximas Passagens (próximas 24 horas)

TLE

AtualizadoSource: CelesTrak SupGP

Época: Sep 14, 2026, 20:37 UTC

1 51777C 22017K   26257.85951389 -.00002416  00000+0 -69094-4 0  2572
2 51777  53.1587 198.3396 0001372 101.9111 182.6890 15.35408441    14

Acompanhe STARLINK-3625 em tempo real com AllMySat

Download on the App Store